Powrót do katalogu

STARLINK-35252

AktywnyŁącznośćVLEO
NORAD 65850·PAYLOAD·🇺🇸 United States

Wystrzelony Sep 29, 2025 z Vandenberg Space Force Base

Loading…

Następne Przeloty (najbliższe 24 godziny)

TLE

ŚwieżeSource: CelesTrak SupGP

Epoka: Sep 14, 2026, 21:35 UTC

1 65850C 25221AD  26257.89979167  .00039757  00000+0  11748-2 0  2574
2 65850  53.1564 288.0091 0001144  95.2507 245.8503 15.34366848    12

Śledź STARLINK-35252 w czasie rzeczywistym z AllMySat

Download on the App Store